• Processing (Info)

  • MPEC 2024-P36 : 2020 QK111

    The following Minor Planet Electronic Circular may be linked-to from your own Web pages, but must not otherwise be redistributed electronically.

    A form allowing access to any MPEC is at the bottom of this page.


    Read MPEC 2024-P35 Read MPEC 2024-P37


    M.P.E.C. 2024-P36                                Issued 2024 August 2, 23:34 UT
    
         The Minor Planet Electronic Circulars contain information on unusual
             minor planets, routine data on comets and natural satellites,
             and occasional editorial announcements.  They are published
        on behalf of Division F of the International Astronomical Union by the
              Minor Planet Center, Smithsonian Astrophysical Observatory,
                              Cambridge, MA 02138, U.S.A.
    			  
                 Prepared using the Tamkin Foundation Computer Network
    
                                  MPC@CFA.HARVARD.EDU
                URL https://www.minorplanetcenter.net/    ISSN 1523-6714
    
                                   2020 QK111                                
    
    
    Observations:
         K20QB1K* C2020 08 26.72548022 32 27.917+10 51 01.01         16.4 GVEP036P07
         K20QB1K  C2020 08 26.77644123 12 24.686+10 19 01.78         16.1 GVEP036P07
         K20QB1K  C2020 08 26.82329200 05 37.963+09 06 05.18         16.0 GVEP036P07
         K20QB1K  C2020 08 26.85579700 53 28.092+07 34 26.94         15.8 GVEP036P07
         K20QB1K  C2020 08 26.89022801 51 35.088+05 15 53.21         16.1 GVEP036P07
    
    Observer details:
    P07 Space Surveillance Telescope, HEH Station.  Observers M. Blythe, R.
        Brungard, P. Festler, T. McVey, J. Paige, G. Spitz, L. Banks.  Measurers
        M. Cornell, M. Kotson, A. Lue, R. Rios, J. Ruprecht, J. Vaillancourt, J.
        Varey, H. Viggh, D. Woods, R. Monardez.  3.5-m f/1. Reflector + CCD.
    
    Orbital elements:
    2020 QK111                                               Earth MOID = 0.0005 AU
    Epoch 2024 Oct. 17.0 TT = JDT 2460600.5                 Veres                   
    M 196.57280              (2000.0)            P               Q                  
    n   0.37678497     Peri.  225.75679     +0.93802580     -0.33875064             
    a   1.8984843      Node   153.78484     +0.34595068     +0.90267585             
    e   0.5227608      Incl.    9.53594     +0.02063306     +0.26537579             
    P   2.62           H   29.79          G   0.15           U   9                  
    Residuals in seconds of arc
    200826 P07  0.2+  0.1-    200826 P07  0.4+  0.0     200826 P07  0.0   0.0
    200826 P07  0.5-  0.0     200826 P07  0.1-  0.0
    
    Ephemeris:
    2020 QK111               a,e,i = 1.90, 0.52, 10                  q = 0.9060
    Date    TT    R. A. (2000) Decl.     Delta      r    Elong.  Phase     V
    2024 07 03    11 35 04.2 +08 33 07   3.0431  2.8553    69.8    19.5
    ...
    2024 07 18    11 49 20.1 +06 56 14   3.2513  2.8704    59.4    17.7
    ...
    2024 07 26    11 57 37.0 +06 00 44   3.3529  2.8768    54.1    16.6
    ...
    2024 08 01    12 04 05.4 +05 17 42   3.4243  2.8808    50.1    15.7
    2024 08 02    12 05 11.3 +05 10 26   3.4358  2.8814    49.5    15.5
    2024 08 03    12 06 17.6 +05 03 07   3.4472  2.8820    48.8    15.4
    ...
    2024 08 09    12 13 02.0 +04 18 47   3.5125  2.8851    44.9    14.4
    ...
    2024 08 17    12 22 17.6 +03 18 29   3.5919  2.8883    39.8    13.0
    ...
    2024 09 01    12 40 23.0 +01 23 08   3.7155  2.8909    30.4    10.2
    
    M. P. C. Staff               (C) Copyright 2024 MPC           M.P.E.C. 2024-P36
    


    Read MPEC 2024-P35 Read MPEC 2024-P37


    MPEC number:

    Enter an MPEC number in one of the following forms:

    • 1997-B01 (the full form)
    • J97B01 (the packed version of the full form)
    • B01 (the abbreviated form)